Flag for Brazil Weather past 2 weeks in Curitiba, Paraná, Brazil

Now
77 °F

Scattered clouds.


Feels Like: 79 °F
Forecast: 60 / 73 °F
Wind: 7 mph from North

Location: Curitiba Aeroporto


UV Index: 5 (Moderate)

Visibility: N/A


Pressure: 30.01 "Hg

Humidity: 61%

Dew point: 63 °F

Location of CuritibaLocation

Historic Weather in Curitiba

°F

Curitiba temperature yesterday

Maximum temperature yesterday: 77 °F (at 3:00 PM)
Minimum temperature yesterday: 59 °F (at 7:00 AM)
Average temperature yesterday: 66 °F

Past Weeks' High & Low Weather Summary

 TemperatureHumidityPressure
High91 °F (Apr 7, 8:00 AM)100% (Apr 3, 1:00 PM)30.27 "Hg (Apr 3, 1:00 PM)
Low55 °F (Apr 14, 6:00 PM)40% (Apr 7, 3:00 PM)29.95 "Hg (Apr 12, 5:00 AM)
Average65 °F91%30.12 "Hg
* Reported Apr 3 12:00 Noon — Apr 18 12:00 Noon, Curitiba, Weather by CustomWeather, © 2014

Note: Actual official high and low records may vary slightly from our data, if they occured in-between our weather recording intervals... More about our weather records

Advertising

Historic Weather Conditions — Data for Previous 24 hours

 ConditionsComfort  
Time TempWeatherWind HumidityBarometerVisibility
12:00 PM
Apr 18
73 °FScattered clouds.7 mph74%30.07 "HgN/A
11:00 AM72 °FScattered clouds.6 mph78%30.07 "HgN/A
10:00 AM68 °FFog.7 mph88%30.07 "Hg3 mi
9:00 AM64 °FFog.6 mph94%30.09 "Hg3 mi
8:00 AM63 °FFog.1 mph100%30.09 "Hg2 mi
7:00 AM61 °FFog.6 mph100%30.09 "Hg1 mi
6:00 AM61 °FFog.3 mph100%N/A1 mi
5:00 AM61 °FFog.3 mph100%N/A1 mi
4:00 AM61 °FFog.3 mph100%30.07 "Hg3 mi
3:00 AM63 °FPartly cloudy.6 mph100%30.07 "HgN/A
2:00 AM63 °FPassing clouds.5 mph100%30.09 "HgN/A
1:00 AM63 °FPartly cloudy.No wind100%30.12 "HgN/A
12:00 AM63 °FPartly cloudy.3 mph100%30.12 "HgN/A
11:00 PM
Apr 17
64 °FPassing clouds.3 mph94%30.12 "HgN/A
10:00 PM63 °FPassing clouds.3 mph100%30.12 "HgN/A
9:00 PM63 °FPartly cloudy.5 mph100%30.12 "HgN/A
8:00 PM63 °FPassing clouds.6 mph100%30.09 "HgN/A
7:00 PM64 °FPassing clouds.3 mph94%30.09 "HgN/A
6:00 PM66 °FPassing clouds.6 mph88%30.09 "HgN/A
5:00 PM70 °FPassing clouds.9 mph83%30.09 "HgN/A
4:00 PM75 °FPartly sunny.7 mph65%30.09 "HgN/A
3:00 PM77 °FPartly sunny.5 mph54%30.09 "HgN/A
2:00 PM73 °FPartly sunny.3 mph61%30.09 "HgN/A
1:00 PM73 °FPartly sunny.5 mph65%30.12 "HgN/A
Weather by CustomWeather, © 2014

See weather overview